Espace membre
Imprimable
Malmedy, 24/06/2018, BEL - Raid des Hautes Fagnes
Liste des rapports > 90km - Classement
Recherche: Page: [1]
123 Entrées
 
Les réclamations ne sont plus acceptées, les résultats sont considérés comme définitifs.
RangNrLicenceNomAgeIOCEquipeTempsTkmMoy.ScrLocalité
Vos photos gr?ce ? Sportograf1.15010056352940WIJCKMAN Kristof41BELAPRES-BOKERS4:42:443:09 19.102WIEKEVORST
Vos photos gr?ce ? Sportograf2.10510049800689DUBOIS Frederic44BEL4:49:513:14 18.634FEXHE LE HAUT CLOCHER
Vos photos gr?ce ? Sportograf3.8610051010058BRUNO Vasco42BELDW BIKES4:50:043:14 18.625NEERPELT
Vos photos gr?ce ? Sportograf4.6910027758754PETIT Gonzague42FRANPC4:51:103:15 18.557WERVICQ-SUD
Vos photos gr?ce ? Sportograf5.19810065211363DEPONT Yves40BELROTWILD ZAES5:01:303:21 17.9117ARDOOIE
Vos photos gr?ce ? Sportograf6.7310036522403WEBER Laurent44BELTEAM BIKE4LIFE-BMC5:04:313:24 17.7322REBECQ
Vos photos gr?ce ? Sportograf7.80410062101909DE BOECK Bart47BELINDIVIDUEEL5:05:503:24 17.6625ASSE
Vos photos gr?ce ? Sportograf8.18510024768831CLERET Pierre43FRAVELO CLUB SAINT LO PONT H5:06:003:24 17.6526BAUDRE
Vos photos gr?ce ? Sportograf9.14210005464114PLANCKAERT Hans49BELROTWILD-ZAES TEAM5:06:543:25 17.6028IEPER
Vos photos gr?ce ? Sportograf10.865GOEMAN Kenny42BELDIRTY BIKERS5:08:163:26 17.5231OPOETEREN
Vos photos gr?ce ? Sportograf11.14610003426104APPERMANS Steve41BELRAF'S BIKE TEAM BORGLOON5:13:323:30 17.2235DIEPENBEEK
Vos photos gr?ce ? Sportograf12.17110022919262BOUDEWIJNS Marcel45NLDTML DOMMELSTREEK5:14:153:30 17.1836GERWEN
Vos photos gr?ce ? Sportograf13.13110053962292GEERT Van Kerckhove42BELSOLCAM-MAXLED-MONTBIKE5:14:323:30 17.1738MONTBRIO DEL CAMP
Vos photos gr?ce ? Sportograf14.18310022747591VAN GORKUM Joost40NLDMB SPORTSWEAR / MTBARNHEM5:17:193:32 17.0242GENDT
Vos photos gr?ce ? Sportograf15.8510076064855LUYPAERT Dieter40BELINDIVIDUEEL5:18:273:33 16.9643BUGGENHOUT
Vos photos gr?ce ? Sportograf16.842DEHING Filip47BELSV VOSSEM5:20:153:34 16.8646X
Vos photos gr?ce ? Sportograf17.470STERCKX Jan40BELMTB-P5:21:283:35 16.8049NOORDERWIJK
Vos photos gr?ce ? Sportograf18.556VANELDEREN Dominic43BEL5:23:473:36 16.6853GUIGOVEN
Vos photos gr?ce ? Sportograf19.625ROUGEMONT Laurent42FRAULTRA VTT MERICOURT5:30:263:41 16.3461MERICOURT
Vos photos gr?ce ? Sportograf20.419BUELENS Johan49BEL5:30:463:41 16.3362TESSENDERLO
Vos photos gr?ce ? Sportograf21.517CODDENS Peter41BELBRM CYCLING5:33:303:43 16.1963HEULE
Vos photos gr?ce ? Sportograf22.12610025349114VANDEMEULEBROEKE Arnaud49FRAVTTSTAMANDLESEAUX5:35:433:44 16.0966HERGNIES
Vos photos gr?ce ? Sportograf23.840VAN NOTEN Walter49BELKNOET5:35:593:44 16.0767LANGDORP
Vos photos gr?ce ? Sportograf24.20216903033218VAN DAMME Patriek49BELDURMESPURTERS5:40:573:48 15.8478LOKEREN
Vos photos gr?ce ? Sportograf25.12310016248187VERBEURGT Peter45BELINDIVIDUEEL5:47:303:52 15.5489LEUVEN
Vos photos gr?ce ? Sportograf26.577CLYMANS Tom46BEL5:48:593:53 15.4792RAMSDONK
Vos photos gr?ce ? Sportograf27.608PAESMANS Tom Paesmans44BELTEAM DEL SOL5:49:003:53 15.4793BEKKEVOORT
Vos photos gr?ce ? Sportograf28.641OUDERMANS Thierri44BELTRIPLLEL BIKERS5:49:113:53 15.4794ZOERSEL
Vos photos gr?ce ? Sportograf29.234LEPLAE Pascal47BELTEAM BIKE4LIFE5:50:483:54 15.3997NIVELLES
Vos photos gr?ce ? Sportograf30.501VANLOFFELD Ronny43BEL5:52:413:56 15.31100BILZEN
Vos photos gr?ce ? Sportograf31.83810495/96005078VAN DIJK Rick49NLDFCC DE PLAKPUNTERS5:53:403:56 15.27105BAARLO LB
Vos photos gr?ce ? Sportograf32.337MARS B48NLD5:57:093:59 15.12111TILBURG
Vos photos gr?ce ? Sportograf33.710VANSTREELS Tom44BELMTB P5:57:143:59 15.12112MOL
Vos photos gr?ce ? Sportograf34.361WOUTERS Luc47BELMTBP5:57:143:59 15.12113OLEN
Vos photos gr?ce ? Sportograf35.748TANT Hendrik45BEL5:58:494:00 15.05115ANZEGEM
Vos photos gr?ce ? Sportograf36.610LEBESQUE Carl47BEL5:59:014:00 15.04116HAMME-MILLE
Vos photos gr?ce ? Sportograf37.664VAN GILS Tom45BELRABC BRASSCHAAT5:59:084:00 15.04117BRASSCHAAT
Vos photos gr?ce ? Sportograf38.627BIL Christian44BELWACKY RACERS6:00:244:01 14.98118KNOKKE-HEIST
Vos photos gr?ce ? Sportograf39.441DEN HOUTER Tjeerd42NLDTEAM CUBESTOREVLAARDINGEN6:00:504:01 14.97120VLAARDINGEN
Vos photos gr?ce ? Sportograf40.533VAN MIEGHEM Tom42BELMTB VAN HOYWEGHEN6:03:174:03 14.86126BAZEL
Vos photos gr?ce ? Sportograf41.540KETELS Kurt40BEL6:06:084:05 14.75131OOSTAKKER
Vos photos gr?ce ? Sportograf42.283LEYENS Pierre42BEL6:06:124:05 14.75132HARZÉ
Vos photos gr?ce ? Sportograf43.18410071542534VAN STUIVENBERG Reinier45NLDTWC PIJNENBURG6:06:404:05 14.73133MOERGESTEL
Vos photos gr?ce ? Sportograf44.20410063845481PLARD Christophe46FRASA VERDUN6:08:264:06 14.66136SAINT-MIHIEL
Vos photos gr?ce ? Sportograf45.643MAES Jan Willem41BEL6:08:344:06 14.65137NETHEN
Vos photos gr?ce ? Sportograf46.789DUBOIS Julien41FRA9@THETREE6:09:034:07 14.63140TRESSN
Vos photos gr?ce ? Sportograf47.623MEIJER Olaf47NLDCYCLIST JEAN HABETS6:09:184:07 14.62141VALKENBURG AD GEUL
Vos photos gr?ce ? Sportograf48.693DE NEEF Ulrich48BEL6:10:144:07 14.59145AALST
Vos photos gr?ce ? Sportograf49.576PONCET Pascal45FRAVTT HAUTS DE FRANCE6:11:064:08 14.55146ORCHIES
Vos photos gr?ce ? Sportograf50.640LEMPEREUR Grégory40BEL6:19:204:13 14.24160WÉPION
Vos photos gr?ce ? Sportograf51.493DIERICKX Steven45BEL6:19:544:14 14.21161KNOKKE-HEIST
Vos photos gr?ce ? Sportograf52.429LA ROOY Arjen44NLD6:21:574:15 14.14166ALKMAAR
Vos photos gr?ce ? Sportograf53.758DEWAELE David43BELCRAZY WHEELS6:21:594:15 14.14167ANSEROEUL
Vos photos gr?ce ? Sportograf54.516VAN DEN WOLLENBERG Nico48NLD6:24:324:17 14.04175HILVERSUM
Vos photos gr?ce ? Sportograf55.349LENAERTS Koen48BELMTB NO EXCUSE6:24:574:17 14.03177LILLE
Vos photos gr?ce ? Sportograf56.334BAUTE Jeroen44BEL6:25:424:18 14.00179ADEGEM
Vos photos gr?ce ? Sportograf57.364CRAPS Peter41BEL6:28:344:20 13.90185OVERIJSE
Vos photos gr?ce ? Sportograf58.375BRUYNINCKX Geert43BELRILLAARSE BIKERS6:30:254:21 13.83192RILLAAR
Vos photos gr?ce ? Sportograf59.296VAN HOOF Dave41BEL6:30:394:21 13.82194LAAKDAL
Vos photos gr?ce ? Sportograf60.788DUPONT Aymeric42FRA6:33:234:23 13.73199ANSTAING
Vos photos gr?ce ? Sportograf61.859NED19720319PEETERS Harrie46NLDMTB BAARLO6:34:464:24 13.68202VENLO
Vos photos gr?ce ? Sportograf62.762VREVEN Jimmy45BELMTB GENT6:35:354:24 13.65204HOOGSTRATEN
Vos photos gr?ce ? Sportograf63.754MICHEL Jérôme44BELMALMEDY MOUNTAINBIKE TEAM6:41:134:28 13.46210MALMEDY
Vos photos gr?ce ? Sportograf64.16310022918757ALMAR Mager44NLDMTBARNHEM6:41:204:28 13.46211VORDEN
Vos photos gr?ce ? Sportograf65.649MOLLINK Sjors43NLDWERKENDLEREN RACING TEAM6:44:094:30 13.36216ALMELO
Vos photos gr?ce ? Sportograf66.469SOMJA José-Emmanuel41BELCLUB CYCLISTE MANAIHANT6:44:114:30 13.36217BATTICE
Vos photos gr?ce ? Sportograf67.583VEKEMANS Tim40BELMTBP6:44:374:30 13.35219HERENTALS
Vos photos gr?ce ? Sportograf68.768VAN MOOTER Patrick48BELMOUNTAINFIGHTERS6:48:524:33 13.21227TREMELO
Vos photos gr?ce ? Sportograf69.346CORNELIS Kris47BEL6:54:304:37 13.03239LIEDEKERKE
Vos photos gr?ce ? Sportograf70.736KOKS Maarten41NLD6:54:464:37 13.02241DRUNEN
Vos photos gr?ce ? Sportograf71.495DE MEY Yves40BEL6:55:064:37 13.01243WESTMALLE
Vos photos gr?ce ? Sportograf72.534LEEUWEN VAN Janw49NLD6:56:214:38 12.97245ROZENBURG
Vos photos gr?ce ? Sportograf73.569VANASSCHE Davy40BEL6:57:184:39 12.94246OOSTROZEBEKE
Vos photos gr?ce ? Sportograf74.505SNOECK Davy45BEL2FAST6:58:054:39 12.92247KIELDRECHT
Vos photos gr?ce ? Sportograf75.783SERGEANT Gregory40BEL6:59:054:40 12.89251GENT
Vos photos gr?ce ? Sportograf76.549GEETS Jean Michel45BELIBA VTT6:59:484:40 12.86253COUTHUIN
Vos photos gr?ce ? Sportograf77.823VAN CUTSEM Stefan43BEL7:00:494:41 12.83255
Vos photos gr?ce ? Sportograf78.491DELHEZ Christophe45BEL7:01:004:41 12.83256JALHAY
Vos photos gr?ce ? Sportograf79.527HEEMERYCK Emmanuel40BEL7:06:154:45 12.67265OOSTNIEUWKERKE
Vos photos gr?ce ? Sportograf80.691FALISE Christian42BELDE RAPTE7:09:394:47 12.57267HAASRODE
Vos photos gr?ce ? Sportograf81.807BEFFORT Thierry48LUX7:18:364:53 12.31277LUXEMBOURG
Vos photos gr?ce ? Sportograf82.243SCHOONBROODT Cédric40BEL7:20:384:54 12.26282SART-LEZ-SPA
Vos photos gr?ce ? Sportograf83.253VANHAMME Ronald46BELGAAAZZZ BIKERS7:20:504:54 12.25283KONINGSHOOIKT
Vos photos gr?ce ? Sportograf84.669VOS David46BEL7:23:234:56 12.18287WILSELE
Vos photos gr?ce ? Sportograf85.456MONPROFIT Steven44BEL7:24:274:57 12.15288LOCHRISTI
Vos photos gr?ce ? Sportograf86.616VAN DER MEER Jurie43NLD7:25:254:57 12.12291WILLEMSTAD
Vos photos gr?ce ? Sportograf87.461VRANKEN Vital40BEL7:27:474:59 12.06296MALMEDY
Vos photos gr?ce ? Sportograf88.779CHAMBON Robert47NLD7:34:435:04 11.88307
Vos photos gr?ce ? Sportograf89.652GERT Vandecauter43BELBLUE RIDERS7:38:395:06 11.77313OPVELP
Vos photos gr?ce ? Sportograf90.563MARTENS Erwin45BEL7:38:545:06 11.77317VOSSELAAR
Vos photos gr?ce ? Sportograf91.703SMIT Jean-Paul45NLDMBC NOORDBIKERS7:42:355:09 11.67320HOOFDDORP
Vos photos gr?ce ? Sportograf92.276MUELLER Axel43DEUTV HOCHDORF7:43:355:10 11.65321HOCHDORF
Vos photos gr?ce ? Sportograf93.713KEESJAN Van Den Herik47NLD7:49:035:13 11.51328WELLERLOOI
Vos photos gr?ce ? Sportograf94.778DASSONVILLE Christophe44FRA7:51:355:15 11.45330TOURCOING
Vos photos gr?ce ? Sportograf95.776235132BONNIER Laurent41FRATEAM VTT ATTICHES7:51:365:15 11.45331LOMME
Vos photos gr?ce ? Sportograf96.387RAGÉ Frédéric46BEL7:53:075:16 11.41333LAMBUSART
Vos photos gr?ce ? Sportograf97.521POUCET Olivier43BEL7:53:085:16 11.41334AISEMONT
Vos photos gr?ce ? Sportograf98.356VAN DEN EECKHOUDT Gert41BEL7:56:375:18 11.33336MEERBEKE
Vos photos gr?ce ? Sportograf99.256GUILLOT Laurent48FRACYCLO CLUB DE WAVRIN8:01:095:21 11.22339WAVRIN
Vos photos gr?ce ? Sportograf100.343DEN OUDEN Marcel48NLD8:04:015:23 11.16343HOUTEN
Vos photos gr?ce ? Sportograf101.786VAN SAET Mark47BEL8:13:275:29 10.94347KAPELLEN
Vos photos gr?ce ? Sportograf102.621LEROY Stephen45BEL8:21:515:35 10.76353OOSTKAMP
Vos photos gr?ce ? Sportograf103.458COUPÉ Maarten41BELMUNTE CYCLING TEAM8:25:435:38 10.68356SCHELDERODE
Vos photos gr?ce ? Sportograf104.836VAN LAER Filip44BEL8:41:515:48 10.35361TREMELO
Vos photos gr?ce ? SportografDSQ512KALIS Perry47NLD6:19:22VLAARDINGEN
Vos photos gr?ce ? SportografDSQ438DE CRUYENAERE Stephane45BEL7:35:42LEMBEEK
Vos photos gr?ce ? SportografDNF6010014108127ALOFS Jean-Marie49BELTEAM BIKE4LIFE-BMCHERVE
Vos photos gr?ce ? SportografDNF588BOOY Tom40BELGISTEL
Vos photos gr?ce ? SportografDNF607BRUYNEEL Emmanuel43BELEXTREAM TEAMELSEGEM
Vos photos gr?ce ? SportografDNF14110003594640DECLERCQ Wouter43BELTRUST MTB TEAM VZWRUDDERVOORDE
Vos photos gr?ce ? SportografDNF326DUEZ Guillaume42FRAARMENTIÉRES
Vos photos gr?ce ? SportografDNF694GENTEN Frank45BELGLOUMS VTTWAIMES
Vos photos gr?ce ? SportografDNF536HERMANS Yves42BELHERENTHOUT
Vos photos gr?ce ? SportografDNF401HOLWERDA Ruurd40NLDKOOG AAN DE ZAAN
Vos photos gr?ce ? SportografDNF249HUIDEKOPER Rick47NLDEGCHEL
Vos photos gr?ce ? SportografDNF451JEURISSEN Geert41BELTONGEREN
Vos photos gr?ce ? SportografDNF242KERREMANS Sven44BELMECHELEN
Vos photos gr?ce ? SportografDNF22210016247480NOPPE Bas43BELTEAM HILAIREGITS
Vos photos gr?ce ? SportografDNF440SERGE Verdaasdonk48NLDTILBURG
Vos photos gr?ce ? SportografDNF17510073455151VAN DEN BEEMD Johan44NLDCYCLOTEAMSINT WILLEBRORD
Vos photos gr?ce ? SportografDNF494VAN DER VEGT Giacomo40NLDWARNSVELD
Vos photos gr?ce ? SportografDNF21900000177702VAN HEERTUM Bas47NLDBAKKER RACING TEAMST MICHIELSGESTEL
Vos photos gr?ce ? SportografDNF10310036114292VERTONGEN Jo41BELMTB OVERIJSEOVERIJSE
DNF: abandon; DSQ: disqualifié; Vitesse en km/h
Page: [1]